Location: Karcze
(52.0945°N, 22.4786°E)
Time: 12:06:40
(UTC+00:00)

S-56A Canister/Altair - All Passes

Search period start: 04 August 2021 00:00
Search period end: 14 August 2021 00:00
Orbit: 631 x 2501 km, 38.9° (Epoch: 04 August)

Date Brightness Start Highest point End Pass type
(mag) Time Alt. Az. Time Alt. Az. Time Alt. Az.
04 Aug - 11:31:48 10° SSW 11:41:44 29° SE 11:53:25 10° E daylight
04 Aug - 13:33:30 10° SW 13:45:56 46° SSE 13:59:46 10° ESE daylight
04 Aug - 15:37:37 10° WSW 15:51:05 46° S 16:04:24 10° SE daylight
04 Aug - 17:43:25 10° W 17:55:36 31° SSW 18:06:39 10° SSE daylight
04 Aug - 19:54:17 10° WSW 19:58:22 12° SW 20:02:15 10° SW visible
05 Aug - 10:59:34 10° SSW 11:08:42 26° SE 11:19:37 10° E daylight
05 Aug - 13:00:43 10° SW 13:12:36 44° SSE 13:26:20 10° E daylight
05 Aug - 15:04:28 10° WSW 15:17:41 47° S 15:31:20 10° ESE daylight
05 Aug - 17:09:53 10° W 17:22:24 34° SSW 17:34:05 10° SSE daylight
05 Aug - 19:19:01 10° WSW 19:25:30 14° SW 19:31:36 10° SSW visible
06 Aug - 10:27:30 10° S 10:35:46 23° SE 10:45:40 10° E daylight
06 Aug - 12:28:03 10° SW 12:39:19 42° SSE 12:52:50 10° E daylight
06 Aug - 14:31:25 10° WSW 14:44:16 48° S 14:58:09 10° ESE daylight
06 Aug - 16:36:29 10° W 16:49:08 36° SSW 17:01:24 10° SSE daylight
06 Aug - 18:44:31 10° W 18:52:34 17° SW 19:00:09 10° SSW visible
07 Aug - 09:55:38 10° S 10:02:54 20° SE 10:11:36 10° E daylight
07 Aug - 11:55:28 10° SW 12:06:07 40° SSE 12:19:15 10° E daylight
07 Aug - 13:58:28 10° WSW 14:10:53 48° S 14:24:53 10° ESE daylight
07 Aug - 16:03:10 10° W 16:15:51 38° SSW 16:28:35 10° SE daylight
07 Aug - 18:10:24 10° W 18:19:35 20° SW 18:28:19 10° S daylight
08 Aug - 09:24:00 10° SSE 09:30:07 17° SE 09:37:19 10° E daylight
08 Aug - 11:23:00 10° SW 11:32:59 37° SSE 11:45:36 10° E daylight
08 Aug - 13:25:36 10° WSW 13:37:31 47° S 13:51:32 10° ESE daylight
08 Aug - 15:29:58 10° W 15:42:32 40° SSW 15:55:39 10° SE daylight
08 Aug - 17:36:32 10° W 17:46:31 22° SW 17:56:12 10° S daylight
09 Aug - 08:52:48 10° SSE 08:57:25 14° SE 09:02:41 10° ESE daylight
09 Aug - 10:50:38 10° SSW 10:59:56 34° SSE 11:11:53 10° E daylight
09 Aug - 12:52:50 10° WSW 13:04:13 47° S 13:18:05 10° ESE daylight
09 Aug - 14:56:52 10° W 15:09:11 42° SSW 15:22:36 10° SE daylight
09 Aug - 17:02:52 10° W 17:13:25 24° SW 17:23:53 10° S daylight
10 Aug - 08:22:42 10° SE 08:24:48 11° SE 08:27:01 10° ESE daylight
10 Aug - 10:18:23 10° SSW 10:26:58 31° SSE 10:38:07 10° E daylight
10 Aug - 12:20:09 10° WSW 12:30:57 45° S 12:44:35 10° ESE daylight
10 Aug - 14:23:52 10° W 14:35:51 43° SSW 14:49:27 10° SE daylight
10 Aug - 16:29:23 10° W 16:40:16 27° SW 16:51:22 10° SSE daylight
11 Aug - 09:46:15 10° SSW 09:54:05 28° SE 10:04:16 10° E daylight
11 Aug - 11:47:34 10° SW 11:57:45 44° S 12:11:00 10° ESE daylight
11 Aug - 13:50:57 10° WSW 14:02:32 43° SSW 14:16:12 10° SE daylight
11 Aug - 15:56:02 10° W 16:07:04 29° SSW 16:18:43 10° SSE daylight
11 Aug - 18:08:25 10° WSW 18:10:13 10° SW 18:12:01 10° SW daylight
12 Aug - 09:14:15 10° SSW 09:21:17 24° SE 09:30:22 10° E daylight
12 Aug - 11:15:04 10° SW 11:24:38 42° SSE 11:37:23 10° ESE daylight
12 Aug - 13:18:08 10° WSW 13:29:15 44° S 13:42:52 10° SE daylight
12 Aug - 15:22:49 10° W 15:33:51 31° SSW 15:45:55 10° SSE daylight
12 Aug - 17:32:16 10° WSW 17:37:17 12° SW 17:42:19 10° SSW daylight
13 Aug - 08:42:23 10° S 08:48:34 21° SE 08:56:24 10° E daylight
13 Aug - 10:42:39 10° SW 10:51:35 39° SSE 11:03:42 10° ESE daylight
13 Aug - 12:45:24 10° WSW 12:55:59 44° S 13:09:27 10° ESE daylight
13 Aug - 14:49:43 10° W 15:00:38 32° SSW 15:12:59 10° SSE daylight
13 Aug - 16:57:44 10° WSW 17:04:17 15° SW 17:11:00 10° SSW daylight
